"2009-09-02 00:00:00",1204129,1.853,163.4,7.376,0.361,22.83,111.1705,27.9,28.88,11.36,0,111.5,13.06,28.75,125.4
"2009-09-02 00:00:30",1204130,1.649,169.3,9.83,0.401,22.8,111.1669,27.89,28.89,11.38,0,111.5,13.06,28.74,131.3
"2009-09-02 00:01:00",1204131,1.837,150.3,8.85,0.087,22.79,111.1481,27.85,28.87,11.37,0,111.5,13.06,28.69,112.3
"2009-09-02 00:01:30",1204132,1.633,146.7,3.775,0.102,22.78,111.1405,27.83,28.85,11.34,0,111.4,13.06,28.68,108.7
"2009-09-02 00:02:00",1204133,1.907,174.8,6.246,0.139,22.77,111.1341,27.81,28.84,11.46,0,111.4,13.06,28.66,136.8
"2009-09-02 00:02:30",1204134,1.992,175.9,6.572,0.247,22.84,111.1335,27.81,28.83,11.41,0,111.5,13.06,28.66,137.9
"2009-09-02 00:03:00",1204135,1.746,177.5,4.213,0.132,22.84,111.133,27.81,28.8,11.38,0,111.4,13.06,28.66,139.5
"2009-09-02 00:03:30",1204136,1.621,175.9,1.439,0.106,22.87,111.1241,27.78,28.78,11.28,0,111.4,13.06,28.63,137.9
"2009-09-02 00:04:00",1204137,1.655,175.8,4.502,0.151,22.86,111.1138,27.76,28.77,11.33,0,111.4,13.06,28.61,137.8
"2009-09-02 00:04:30",1204138,1.96,175.4,3.248,0.243,22.82,111.1127,27.75,28.76,11.3,0,111.4,13.06,28.60,137.4
"2009-09-02 00:05:00",1204139,1.982,178.2,4.959,0.144,22.83,111.1072,27.74,28.76,11.33,0,111.4,13.06,28.59,140.2
"2009-09-02 00:05:30",1204140,2.057,170.9,8.75,0.151,22.85,111.1058,27.74,28.75,11.39,0,111.4,13.06,28.59,132.9
"2009-09-02 00:06:00",1204141,2.089,162.3,2.788,0.089,22.84,111.1086,27.74,28.73,11.4,0,111.4,13.06,28.59,124.3
"2009-09-02 00:06:30",1204142,2.086,173.2,2.513,0.105,22.83,111.1105,27.75,28.72,11.48,0,111.4,13.05,28.60,135.2
"2009-09-02 00:07:00",1204143,1.882,173.3,4.102,0.135,22.91,111.1121,27.75,28.73,11.41,0,111.4,13.06,28.60,135.3
"2009-09-02 00:07:30",1204144,1.682,168.7,2.279,0.069,22.98,111.1145,27.76,28.71,11.39,0,111.4,13.06,28.61,130.7
"2009-09-02 00:08:00",1204145,2.014,173.1,2.231,0.142,22.89,111.1186,27.77,28.71,11.32,0,111.4,13.06,28.62,135.1
"2009-09-02 00:08:30",1204146,1.99,175.4,2.263,0.108,22.9,111.1208,27.78,28.71,11.3,0,111.4,13.06,28.62,137.4
"2009-09-02 00:09:00",1204147,1.632,167,5.278,0.208,22.97,111.1251,27.79,28.73,11.29,0,111.4,13.06,28.64,129.0
"2009-09-02 00:09:30",1204148,1.999,163.7,2.188,0.12,22.9,111.1273,27.79,28.72,11.31,0,111.4,13.06,28.64,125.7
"2009-09-02 00:10:00",1204149,1.965,172.4,3.968,0.106,22.86,111.1276,27.79,28.72,11.29,0,111.4,13.06,28.64,134.4
"2009-09-02 00:10:30",1204150,1.925,165.7,3.369,0.135,22.87,111.1173,27.77,28.72,11.38,0,111.4,13.06,28.62,127.7
"2009-09-02 00:11:00",1204151,1.981,160.5,5.633,0.213,22.89,111.1033,27.73,28.7,11.47,0,111.4,13.06,28.58,122.5
"2009-09-02 00:11:30",1204152,2.221,154.3,1.865,0.147,22.91,111.1005,27.72,28.7,11.54,0,111.4,13.06,28.57,116.3
"2009-09-02 00:12:00",1204153,2.378,149.5,2.314,0.209,22.94,111.0943,27.71,28.7,11.52,0,111.4,13.06,28.56,111.5
"2009-09-02 00:12:30",1204154,2.419,139.9,3.652,0.211,22.96,111.0962,27.71,28.67,11.51,0,111.4,13.06,28.56,101.9
"2009-09-02 00:13:00",1204155,2.164,143,3.499,0.143,22.89,111.0956,27.71,28.68,11.57,0,111.4,13.07,28.56,105.0
"2009-09-02 00:13:30",1204156,1.925,143.5,3.614,0.125,22.91,111.0957,27.71,28.67,11.6,0,111.4,13.07,28.56,105.5
"2009-09-02 00:14:00",1204157,1.924,141.8,5.408,0.159,22.88,111.09,27.7,28.67,11.57,0,111.4,13.07,28.54,103.8
"2009-09-02 00:14:30",1204158,1.766,155.4,8.34,0.179,22.87,111.0881,27.69,28.66,11.57,0,111.4,13.07,28.54,117.4
"2009-09-02 00:15:00",1204159,2.013,161.5,9.36,0.152,22.89,111.0863,27.69,28.65,11.51,0,111.4,13.07,28.54,123.5
"2009-09-02 00:15:30",1204160,2.256,161.6,3.947,0.142,22.89,111.0837,27.68,28.66,11.45,0,111.4,13.07,28.53,123.6
"2009-09-02 00:16:00",1204161,2.154,152.5,3.91,0.195,22.83,111.0784,27.67,28.64,11.44,0,111.4,13.07,28.51,114.5
"2009-09-02 00:16:30",1204162,2.426,148.5,4.822,0.237,22.87,111.0776,27.66,28.65,11.43,0,111.4,13.07,28.51,110.5
"2009-09-02 00:17:00",1204163,2.745,145.3,2.879,0.107,22.91,111.0773,27.66,28.62,11.39,0,111.4,13.07,28.51,107.3
"2009-09-02 00:17:30",1204164,2.986,143,1.977,0.107,22.83,111.0714,27.65,28.63,11.38,0,111.4,13.07,28.50,105.0
"2009-09-02 00:18:00",1204165,2.885,146,2.784,0.154,22.93,111.0703,27.65,28.63,11.4,0,111.4,13.07,28.49,108.0
"2009-09-02 00:18:30",1204166,2.84,144.5,2.492,0.116,22.94,111.0694,27.64,28.62,11.44,0,111.4,13.07,28.49,106.5
"2009-09-02 00:19:00",1204167,2.775,145.7,3.941,0.063,22.96,111.0663,27.64,28.61,11.47,0,111.4,13.07,28.48,107.7
"2009-09-02 00:19:30",1204168,2.622,154.9,2.434,0.169,22.96,111.0636,27.63,28.6,11.48,0,111.4,13.07,28.48,116.9
"2009-09-02 00:20:00",1204169,2.457,147.3,4.433,0.147,22.96,111.0613,27.62,28.59,11.47,0,111.4,13.07,28.47,109.3
"2009-09-02 00:20:30",1204170,2.222,147.8,3.563,0.287,22.94,111.0524,27.6,28.61,11.47,0,111.4,13.07,28.45,109.8
"2009-09-02 00:21:00",1204171,2.03,147.9,3.105,0.113,22.94,111.0486,27.59,28.61,11.47,0,111.4,13.07,28.44,109.9
"2009-09-02 00:21:30",1204172,1.915,147.3,1.933,0.123,22.97,111.0469,27.59,28.59,11.48,0,111.4,13.07,28.43,109.3
"2009-09-02 00:22:00",1204173,1.918,145.7,1.468,0.067,22.97,111.0488,27.59,28.6,11.42,0,111.4,13.07,28.44,107.7
"2009-09-02 00:22:30",1204174,1.695,151.2,4.526,0.16,22.96,111.0482,27.59,28.6,11.37,0,111.4,13.07,28.44,113.2
"2009-09-02 00:23:00",1204175,1.457,154.2,2.211,0.135,22.92,111.0443,27.58,28.61,11.45,0,111.4,13.07,28.43,116.2
"2009-09-02 00:23:30",1204176,1.406,161.7,4.094,0.084,22.89,111.0406,27.57,28.59,11.49,0,111.4,13.06,28.42,123.7
"2009-09-02 00:24:00",1204177,1.692,156.9,2.089,0.293,22.91,111.0429,27.58,28.61,11.51,0,111.4,13.06,28.42,118.9
"2009-09-02 00:24:30",1204178,2.148,148.5,3.127,0.071,22.89,111.0466,27.58,28.6,11.41,0,111.4,13.07,28.43,110.5
"2009-09-02 00:25:00",1204179,2.299,159.2,4.774,0.137,23,111.0535,27.6,28.62,11.38,0,111.4,13.06,28.45,121.2
"2009-09-02 00:25:30",1204180,2.259,157.5,1.346,0.078,23,111.0612,27.62,28.59,11.37,0,111.4,13.07,28.47,119.5
"2009-09-02 00:26:00",1204181,2.512,157.1,3.484,0.255,22.97,111.0616,27.62,28.59,11.38,0,111.4,13.07,28.47,119.1
"2009-09-02 00:26:30",1204182,2.454,160.1,5.589,0.079,23.1,111.0604,27.62,28.59,11.42,0,111.4,13.06,28.47,122.1
"2009-09-02 00:27:00",1204183,2.389,146.9,2.134,0.138,23.01,111.0604,27.62,28.59,11.45,0,111.4,13.07,28.47,108.9
"2009-09-02 00:27:30",1204184,2.261,150.7,7.532,0.155,23,111.0507,27.6,28.59,11.42,0,111.3,13.07,28.44,112.7
"2009-09-02 00:28:00",1204185,2.484,151.1,6.99,0.362,22.99,111.0431,27.58,28.58,11.39,0,111.3,13.07,28.42,113.1
"2009-09-02 00:28:30",1204186,2.902,155.2,1.685,0.115,23,111.038,27.56,28.58,11.42,0,111.3,13.07,28.41,117.2
"2009-09-02 00:29:00",1204187,2.727,152.4,3.432,0.298,23.04,111.0353,27.56,28.58,11.45,0,111.3,13.07,28.40,114.4
"2009-09-02 00:29:30",1204188,2.447,155.8,2.853,0.054,23.1,111.0372,27.56,28.57,11.5,0,111.3,13.07,28.41,117.8
"2009-09-02 00:30:00",1204189,2.511,159.7,0.981,0.072,23.05,111.0391,27.57,28.55,11.55,0,111.3,13.07,28.41,121.7
"2009-09-02 00:30:30",1204190,2.47,155.3,2.44,0.121,23.08,111.04,27.57,28.55,11.56,0,111.3,13.08,28.42,117.3
"2009-09-02 00:31:00",1204191,2.791,158.1,3.19,0.123,23.02,111.0361,27.56,28.56,11.57,0,111.3,13.08,28.41,120.1
"2009-09-02 00:31:30",1204192,2.79,159.6,4.811,0.137,23.02,111.0243,27.53,28.53,11.56,0,111.3,13.08,28.38,121.6
"2009-09-02 00:32:00",1204193,3.11,164.3,1.787,0.076,23.03,111.0148,27.5,28.52,11.55,0,111.3,13.08,28.35,126.3
"2009-09-02 00:32:30",1204194,3.086,165.3,1.971,0.161,23.06,111.0092,27.49,28.53,11.55,0,111.3,13.08,28.34,127.3
"2009-09-02 00:33:00",1204195,2.68,168.5,3.067,0.27,23.08,111.0064,27.48,28.51,11.55,0,111.3,13.08,28.33,130.5
"2009-09-02 00:33:30",1204196,2.326,173.8,5.245,0.228,23.03,111.0044,27.48,28.5,11.55,0,111.3,13.08,28.32,135.8
"2009-09-02 00:34:00",1204197,2.355,172.9,8.04,0.155,23.05,110.9988,27.46,28.5,11.52,0,111.3,13.08,28.31,134.9
"2009-09-02 00:34:30",1204198,2.128,174.8,4.332,0.112,22.99,110.9867,27.43,28.47,11.54,0,111.3,13.08,28.28,136.8
"2009-09-02 00:35:00",1204199,1.814,163.1,2.978,0.096,23.02,110.9789,27.41,28.47,11.54,0,111.3,13.08,28.26,125.1
"2009-09-02 00:35:30",1204200,1.789,165,5.196,0.107,23.01,110.9727,27.39,28.46,11.53,0,111.3,13.08,28.24,127.0
"2009-09-02 00:36:00",1204201,1.837,168.7,2.944,0.07,23.03,110.9727,27.39,28.45,11.5,0,111.3,13.08,28.24,130.7
"2009-09-02 00:36:30",1204202,1.845,175,1.587,0.077,23.04,110.9716,27.39,28.45,11.53,0,111.3,13.08,28.24,137.0
"2009-09-02 00:37:00",1204203,1.917,166.7,3.274,0.14,22.99,110.9655,27.38,28.42,11.55,0,111.3,13.08,28.22,128.7
"2009-09-02 00:37:30",1204204,1.867,171.8,3.671,0.126,22.99,110.9506,27.34,28.41,11.57,0,111.3,13.08,28.19,133.8
"2009-09-02 00:38:00",1204205,1.856,167.5,2.024,0.137,22.99,110.946,27.33,28.4,11.59,0,111.3,13.08,28.17,129.5
"2009-09-02 00:38:30",1204206,1.857,164.8,3.983,0.071,22.98,110.9428,27.32,28.39,11.57,0,111.3,13.08,28.17,126.8
"2009-09-02 00:39:00",1204207,1.995,155.6,3.102,0.119,23.01,110.9484,27.33,28.38,11.55,0,111.3,13.08,28.18,117.6
"2009-09-02 00:39:30",1204208,1.806,155.7,3.592,0.079,23.1,110.9559,27.35,28.37,11.53,0,111.3,13.08,28.20,117.7
"2009-09-02 00:40:00",1204209,2.273,161.2,2.986,0.217,23.09,110.9602,27.36,28.37,11.54,0,111.3,13.08,28.21,123.2
"2009-09-02 00:40:30",1204210,2.108,166.2,2.998,0.129,23.06,110.9437,27.32,28.35,11.59,0,111.3,13.08,28.17,128.2
"2009-09-02 00:41:00",1204211,2.43,173.9,3.632,0.151,23.07,110.9412,27.31,28.34,11.61,0,111.3,13.08,28.16,135.9
"2009-09-02 00:41:30",1204212,2.388,167,3.186,0.122,23.12,110.9344,27.3,28.33,11.55,0,111.3,13.08,28.14,129.0
"2009-09-02 00:42:00",1204213,2.159,164.5,1.826,0.081,23.12,110.9331,27.29,28.31,11.54,0,111.3,13.08,28.14,126.5
"2009-09-02 00:42:30",1204214,1.922,167.5,1.398,0.076,23.03,110.9329,27.29,28.31,11.49,0,111.3,13.08,28.14,129.5
"2009-09-02 00:43:00",1204215,1.896,173.8,5.376,0.14,23.1,110.9264,27.28,28.3,11.48,0,111.3,13.08,28.12,135.8
"2009-09-02 00:43:30",1204216,1.83,187.9,2.538,0.092,23.12,110.911,27.24,28.27,11.55,0,111.3,13.08,28.08,149.9
"2009-09-02 00:44:00",1204217,2.086,185.1,2.669,0.215,23.12,110.9082,27.23,28.27,11.61,0,111.3,13.08,28.08,147.1
"2009-09-02 00:44:30",1204218,1.685,189.7,4.984,0.138,23.15,110.9029,27.22,28.26,11.63,0,111.3,13.08,28.06,151.7
"2009-09-02 00:45:00",1204219,2.239,194.7,4.072,0.164,23.13,110.9026,27.21,28.26,11.64,0,111.3,13.09,28.06,156.7
"2009-09-02 00:45:30",1204220,2.086,195.2,3.015,0.167,23.13,110.9063,27.22,28.25,11.64,0,111.3,13.09,28.07,157.2
"2009-09-02 00:46:00",1204221,1.723,200.5,7.737,0.102,23.21,110.9037,27.22,28.23,11.62,0,111.3,13.09,28.06,162.5
"2009-09-02 00:46:30",1204222,1.648,197.7,3.895,0.063,23.19,110.8951,27.2,28.22,11.61,0,111.3,13.09,28.04,159.7
"2009-09-02 00:47:00",1204223,1.608,205.5,2.832,0.055,23.16,110.8869,27.17,28.22,11.63,0,111.3,13.09,28.02,167.5
"2009-09-02 00:47:30",1204224,1.46,202.9,2.241,0.076,23.13,110.8833,27.16,28.21,11.64,0,111.3,13.09,28.01,164.9
"2009-09-02 00:48:00",1204225,1.41,200.8,2.684,0.065,23.09,110.8779,27.15,28.17,11.64,0,111.3,13.09,28.00,162.8
"2009-09-02 00:48:30",1204226,1.447,204.1,2.276,0.073,23.13,110.8754,27.14,28.19,11.65,0,111.3,13.09,27.99,166.1
"2009-09-02 00:49:00",1204227,1.452,204,2.051,0.076,23.11,110.8754,27.14,28.17,11.65,0,111.3,13.09,27.99,166.0
"2009-09-02 00:49:30",1204228,1.563,198.5,3.253,0.056,23.21,110.8732,27.14,28.16,11.66,0,111.3,13.09,27.99,160.5
"2009-09-02 00:50:00",1204229,1.589,191.8,2.061,0.035,23.24,110.8636,27.11,28.15,11.66,0,111.3,13.09,27.96,153.8
"2009-09-02 00:50:30",1204230,1.467,191.2,1.776,0.041,23.15,110.853,27.09,28.13,11.66,0,111.3,13.09,27.93,153.2
"2009-09-02 00:51:00",1204231,1.539,198.6,4.204,0.083,23.25,110.8499,27.08,28.13,11.64,0,111.3,13.09,27.93,160.6
"2009-09-02 00:51:30",1204232,1.784,202.1,2.749,0.143,23.15,110.8429,27.06,28.11,11.6,0,111.3,13.09,27.91,164.1
"2009-09-02 00:52:00",1204233,1.627,195.2,2.935,0.093,23.28,110.8418,27.06,28.11,11.59,0,111.3,13.09,27.90,157.2
"2009-09-02 00:52:30",1204234,1.814,194.2,3.073,0.097,23.16,110.8418,27.06,28.1,11.62,0,111.2,13.09,27.90,156.2
"2009-09-02 00:53:00",1204235,1.892,191.8,3.06,0.129,23.12,110.8392,27.05,28.09,11.64,0,111.2,13.09,27.90,153.8
"2009-09-02 00:53:30",1204236,1.862,190.9,2.744,0.109,23.16,110.8303,27.03,28.08,11.65,0,111.2,13.09,27.87,152.9
"2009-09-02 00:54:00",1204237,1.843,194.4,1.612,0.091,23.2,110.8194,27,28.05,11.65,0,111.2,13.09,27.85,156.4
"2009-09-02 00:54:30",1204238,1.567,200.7,1.737,0.105,23.3,110.8136,26.99,28.05,11.65,0,111.2,13.09,27.83,162.7
"2009-09-02 00:55:00",1204239,1.624,199.6,2.306,0.067,23.34,110.8127,26.98,28.04,11.66,0,111.3,13.09,27.83,161.6
"2009-09-02 00:55:30",1204240,1.78,198.7,1.622,0.12,23.25,110.8183,27,28.03,11.66,0,111.2,13.09,27.84,160.7
"2009-09-02 00:56:00",1204241,1.788,196.9,2.058,0.032,23.26,110.8206,27,28.01,11.66,0,111.2,13.09,27.85,158.9
"2009-09-02 00:56:30",1204242,1.912,197.2,2.159,0.053,23.14,110.8112,26.98,28,11.68,0,111.2,13.09,27.83,159.2
"2009-09-02 00:57:00",1204243,1.927,202.8,1.342,0.054,23.16,110.8056,26.97,28,11.68,0,111.2,13.09,27.81,164.8
"2009-09-02 00:57:30",1204244,1.942,200.7,1.313,0.048,23.17,110.7989,26.95,27.98,11.64,0,111.3,13.09,27.79,162.7
"2009-09-02 00:58:00",1204245,1.865,205.5,3.532,0.055,23.34,110.7996,26.95,27.97,11.64,0,111.2,13.09,27.80,167.5
"2009-09-02 00:58:30",1204246,1.84,204.8,7.692,0.063,23.36,110.8018,26.96,27.95,11.63,0,111.2,13.09,27.80,166.8
"2009-09-02 00:59:00",1204247,1.853,199.8,3.084,0.075,23.26,110.7956,26.94,27.95,11.65,0,111.2,13.09,27.79,161.8
"2009-09-02 00:59:30",1204248,1.927,201.8,3.511,0.062,23.21,110.7845,26.91,27.95,11.65,0,111.2,13.09,27.76,163.8
"2009-09-02 01:00:00",1204249,1.874,200.7,2.278,0.117,23.28,110.7761,26.89,27.92,11.68,0,111.2,13.09,27.73,162.7
"2009-09-02 01:00:30",1204250,1.711,199.1,1.591,0.046,23.36,110.7724,26.88,27.9,11.71,0,111.2,13.09,27.73,161.1
"2009-09-02 01:01:00",1204251,1.729,208.7,3.665,0.053,23.45,110.7746,26.89,27.89,11.7,0,111.2,13.09,27.73,170.7
"2009-09-02 01:01:30",1204252,1.758,210.2,2.49,0.064,23.49,110.7725,26.88,27.87,11.69,0,111.2,13.09,27.73,172.2
"2009-09-02 01:02:00",1204253,1.791,214,1.05,0.073,23.52,110.7594,26.85,27.86,11.67,0,111.2,13.1,27.69,176.0
"2009-09-02 01:02:30",1204254,1.694,212.4,2.16,0.139,23.39,110.7519,26.83,27.86,11.65,0,111.2,13.1,27.67,174.4
"2009-09-02 01:03:00",1204255,1.581,212.7,3.274,0.099,23.3,110.7446,26.81,27.83,11.65,0,111.2,13.1,27.65,174.7
"2009-09-02 01:03:30",1204256,1.849,210.8,4.802,0.137,23.38,110.7444,26.81,27.81,11.67,0,111.2,13.1,27.65,172.8
"2009-09-02 01:04:00",1204257,1.879,207.9,0.853,0.051,23.38,110.7444,26.81,27.8,11.68,0,111.2,13.1,27.65,169.9
"2009-09-02 01:04:30",1204258,1.911,209.5,1.447,0.076,23.39,110.7418,26.8,27.81,11.69,0,111.2,13.1,27.65,171.5
"2009-09-02 01:05:00",1204259,2.026,207.4,3.624,0.038,23.27,110.7244,26.76,27.79,11.7,0,111.2,13.1,27.60,169.4
"2009-09-02 01:05:30",1204260,1.952,210,2.801,0.086,23.39,110.7163,26.74,27.77,11.71,0,111.2,13.1,27.58,172.0
"2009-09-02 01:06:00",1204261,1.887,211.3,1.155,0.059,23.46,110.7118,26.72,27.76,11.7,0,111.2,13.1,27.57,173.3
"2009-09-02 01:06:30",1204262,1.81,212.6,2.072,0.042,23.52,110.7107,26.72,27.74,11.7,0,111.2,13.1,27.57,174.6
"2009-09-02 01:07:00",1204263,1.749,215.6,1.74,0.046,23.44,110.7098,26.72,27.73,11.71,0,111.2,13.1,27.56,177.6
"2009-09-02 01:07:30",1204264,1.697,213,1.158,0.033,23.44,110.6924,26.67,27.7,11.71,0,111.2,13.1,27.52,175.0
"2009-09-02 01:08:00",1204265,1.583,213.1,0.683,0.032,23.35,110.684,26.65,27.71,11.73,0,111.2,13.1,27.50,175.1
"2009-09-02 01:08:30",1204266,1.571,215,1.356,0.052,23.32,110.6776,26.64,27.69,11.73,0,111.2,13.1,27.48,177.0
"2009-09-02 01:09:00",1204267,1.628,218,0.814,0.005,23.31,110.6773,26.64,27.66,11.74,0,111.2,13.1,27.48,180.0
"2009-09-02 01:09:30",1204268,1.619,219.4,0.772,0.033,23.28,110.6768,26.63,27.64,11.75,0,111.2,13.1,27.48,181.4
"2009-09-02 01:10:00",1204269,1.62,218.9,0.741,0.02,23.27,110.6718,26.62,27.65,11.76,0,111.2,13.1,27.47,180.9
"2009-09-02 01:10:30",1204270,1.629,220.3,1.141,0.018,23.26,110.659,26.59,27.63,11.79,0,111.2,13.1,27.43,182.3
"2009-09-02 01:11:00",1204271,1.662,221,1.078,0.053,23.28,110.6581,26.59,27.62,11.79,0,111.2,13.11,27.43,183.0
"2009-09-02 01:11:30",1204272,1.623,217.8,2.49,0.021,23.31,110.6545,26.58,27.59,11.78,0,111.2,13.11,27.42,179.8
"2009-09-02 01:12:00",1204273,1.57,216.6,3.33,0.05,23.29,110.6604,26.59,27.59,11.79,0,111.2,13.11,27.44,178.6
"2009-09-02 01:12:30",1204274,1.581,212.3,1.655,0.042,23.37,110.6631,26.6,27.58,11.81,0,111.2,13.11,27.44,174.3
"2009-09-02 01:13:00",1204275,1.563,213.3,1.694,0.068,23.32,110.6568,26.58,27.55,11.82,0,111.2,13.11,27.43,175.3
"2009-09-02 01:13:30",1204276,1.542,212.5,4.386,0.082,23.34,110.6443,26.55,27.54,11.8,0,111.2,13.11,27.39,174.5
"2009-09-02 01:14:00",1204277,1.568,213.2,0.814,0.04,23.34,110.6395,26.54,27.52,11.8,0,111.2,13.11,27.38,175.2
"2009-09-02 01:14:30",1204278,1.575,213,2.121,0.073,23.35,110.6376,26.53,27.51,11.82,0,111.2,13.11,27.38,175.0
"2009-09-02 01:15:00",1204279,1.802,217.8,3.02,0.124,23.47,110.6367,26.53,27.5,11.82,0,111.2,13.11,27.38,179.8
"2009-09-02 01:15:30",1204280,1.688,218.4,3.13,0.059,23.37,110.6329,26.52,27.49,11.82,0,111.2,13.1,27.37,180.4
"2009-09-02 01:16:00",1204281,1.738,213,3.454,0.061,23.44,110.6174,26.48,27.48,11.82,0,111.2,13.11,27.33,175.0
"2009-09-02 01:16:30",1204282,1.627,217.8,3.108,0.054,23.32,110.61,26.46,27.47,11.83,0,111.2,13.11,27.31,179.8
"2009-09-02 01:17:00",1204283,1.586,212.9,2.151,0.034,23.36,110.611,26.46,27.45,11.84,0,111.2,13.11,27.31,174.9
"2009-09-02 01:17:30",1204284,1.665,217.6,1.688,0.071,23.35,110.6129,26.47,27.44,11.85,0,111.2,13.11,27.31,179.6
"2009-09-02 01:18:00",1204285,1.636,218.3,1.576,0.065,23.32,110.6059,26.45,27.43,11.87,0,111.2,13.11,27.30,180.3
"2009-09-02 01:18:30",1204286,1.862,222.2,1.201,0.03,23.4,110.5888,26.41,27.41,11.87,0,111.2,13.11,27.25,184.2
"2009-09-02 01:19:00",1204287,1.74,220.7,1.003,0.057,23.34,110.582,26.39,27.41,11.91,0,111.2,13.11,27.23,182.7
"2009-09-02 01:19:30",1204288,1.75,221.7,1.405,0.105,23.36,110.5795,26.38,27.4,11.91,0,111.2,13.11,27.23,183.7
"2009-09-02 01:20:00",1204289,1.885,222.2,1.446,0.072,23.41,110.5792,26.38,27.36,11.92,0,111.2,13.12,27.23,184.2
"2009-09-02 01:20:30",1204290,1.842,223,1.296,0.053,23.37,110.5764,26.38,27.36,11.93,0,111.2,13.12,27.22,185.0
"2009-09-02 01:21:00",1204291,1.837,224,0.594,0.074,23.34,110.5672,26.35,27.34,11.95,0,111.2,13.12,27.20,186.0
"2009-09-02 01:21:30",1204292,1.949,220.8,1.476,0.073,23.48,110.5537,26.32,27.34,11.94,0,111.2,13.12,27.16,182.8
"2009-09-02 01:22:00",1204293,2.008,221.5,0.798,0.037,23.51,110.5469,26.3,27.31,11.91,0,111.2,13.12,27.14,183.5
"2009-09-02 01:22:30",1204294,1.976,223.5,1.174,0.046,23.42,110.5458,26.3,27.31,11.93,0,111.2,13.12,27.14,185.5
"2009-09-02 01:23:00",1204295,1.971,225.1,1.598,0.059,23.42,110.5444,26.29,27.3,11.94,0,111.1,13.12,27.14,187.1
"2009-09-02 01:23:30",1204296,1.925,226.9,1.997,0.07,23.33,110.5326,26.26,27.3,11.97,0,111.1,13.12,27.11,188.9
"2009-09-02 01:24:00",1204297,1.972,225.3,0.825,0.074,23.39,110.52,26.23,27.28,11.97,0,111.1,13.12,27.07,187.3
"2009-09-02 01:24:30",1204298,1.949,223.9,1.592,0.072,23.42,110.5138,26.22,27.27,11.98,0,111.1,13.12,27.06,185.9
"2009-09-02 01:25:00",1204299,2.035,226.1,2.133,0.073,23.42,110.5121,26.21,27.24,11.99,0,111.1,13.12,27.05,188.1
"2009-09-02 01:25:30",1204300,2.088,229.8,1.653,0.071,23.4,110.5127,26.21,27.24,12.02,0,111.1,13.12,27.06,191.8
"2009-09-02 01:26:00",1204301,2.269,230.4,0.747,0.071,23.45,110.5074,26.2,27.23,12.04,0,111.1,13.12,27.04,192.4
"2009-09-02 01:26:30",1204302,2.301,229.9,0.644,0.036,23.41,110.4928,26.16,27.21,12.04,0,111.1,13.12,27.00,191.9
"2009-09-02 01:27:00",1204303,2.277,229.4,1.319,0.05,23.39,110.4947,26.17,27.2,12.06,0,111.1,13.12,27.01,191.4
"2009-09-02 01:27:30",1204304,2.425,227.1,0.754,0.071,23.46,110.4905,26.16,27.2,12.03,0,111.1,13.12,27.00,189.1
"2009-09-02 01:28:00",1204305,2.346,228.7,0.593,0.044,23.43,110.4998,26.18,27.19,12.03,0,111.1,13.12,27.02,190.7
"2009-09-02 01:28:30",1204306,2.253,228.8,0.529,0.05,23.5,110.5036,26.19,27.18,12.04,0,111.1,13.12,27.03,190.8
"2009-09-02 01:29:00",1204307,2.185,229.4,0.617,0,23.49,110.4986,26.18,27.16,12.04,0,111.1,13.12,27.02,191.4
"2009-09-02 01:29:30",1204308,2.211,228.8,1.243,0.034,23.46,110.4844,26.14,27.16,12.05,0,111.1,13.12,26.98,190.8
"2009-09-02 01:30:00",1204309,2.133,230.8,0.81,0.035,23.4,110.48,26.13,27.14,12.04,0,111.1,13.12,26.97,192.8
"2009-09-02 01:30:30",1204310,2.148,231.7,1.307,0.038,23.38,110.4732,26.11,27.14,12.06,0,111.1,13.12,26.95,193.7
"2009-09-02 01:31:00",1204311,2.137,233.7,0.666,0.055,23.35,110.473,26.11,27.16,12.09,0,111.1,13.12,26.95,195.7
"2009-09-02 01:31:30",1204312,2.05,233.6,1.202,0.068,23.46,110.473,26.11,27.12,12.19,0,111.1,13.13,26.95,195.6
"2009-09-02 01:32:00",1204313,2.112,233.5,3.501,0.128,23.48,110.4733,26.11,27.13,12.33,0,111.1,13.13,26.95,195.5
"2009-09-02 01:32:30",1204314,2.131,230,1.867,0.031,23.42,110.4742,26.11,27.12,12.3,0,111.1,13.13,26.96,192.0
"2009-09-02 01:33:00",1204315,2.096,226.2,1.076,0.052,23.49,110.4752,26.12,27.11,12.18,0,111.1,13.13,26.96,188.2
"2009-09-02 01:33:30",1204316,2.142,228.1,1.642,0.046,23.46,110.4637,26.09,27.09,12.17,0,111.1,13.13,26.93,190.1
"2009-09-02 01:34:00",1204317,2.157,229,1.541,0.066,23.46,110.4542,26.06,27.1,12.21,0,111.1,13.13,26.90,191.0
"2009-09-02 01:34:30",1204318,2.27,227.6,0.789,0.081,23.5,110.4535,26.06,27.07,12.27,0,111.1,13.13,26.90,189.6
"2009-09-02 01:35:00",1204319,2.21,225.2,2.036,0.082,23.5,110.4497,26.05,27.08,12.28,0,111.1,13.13,26.89,187.2
"2009-09-02 01:35:30",1204320,2.283,228.3,2.898,0.107,23.46,110.4483,26.05,27.08,12.31,0,111.1,13.13,26.89,190.3
"2009-09-02 01:36:00",1204321,2.658,221.3,1.477,0.079,23.46,110.4483,26.05,27.07,12.41,0,111.1,13.13,26.89,183.3
"2009-09-02 01:36:30",1204322,2.62,221.8,2.082,0.078,23.36,110.4483,26.05,27.05,12.39,0,111.1,13.13,26.89,183.8
"2009-09-02 01:37:00",1204323,2.614,224.7,1.075,0.148,23.33,110.4483,26.05,27.05,12.36,0,111.1,13.13,26.89,186.7
"2009-09-02 01:37:30",1204324,2.722,222.6,1.262,0.033,23.44,110.4483,26.05,27.03,12.29,0,111.1,13.13,26.89,184.6
"2009-09-02 01:38:00",1204325,2.946,222.4,1.151,0.11,23.48,110.4471,26.04,27.03,12.27,0,111.1,13.13,26.89,184.4
"2009-09-02 01:38:30",1204326,3.31,221.7,0.613,0.046,23.45,110.4435,26.03,27.03,12.57,0,111.1,13.13,26.88,183.7
"2009-09-02 01:39:00",1204327,3.217,220,1.343,0.161,23.43,110.4345,26.01,27.02,12.73,0,111.1,13.13,26.85,182.0
"2009-09-02 01:39:30",1204328,3.326,219.4,1.174,0.096,23.37,110.428,25.99,27.02,13,0,111.1,13.13,26.84,181.4
"2009-09-02 01:40:00",1204329,3.504,219.2,0.969,0.084,23.37,110.4238,25.98,27.02,13.25,0,111.1,13.13,26.83,181.2
"2009-09-02 01:40:30",1204330,3.519,217.2,0.881,0.034,23.34,110.4233,25.98,27.01,13.42,0,111.1,13.13,26.82,179.2
"2009-09-02 01:41:00",1204331,3.512,217.4,0.734,0.075,23.36,110.421,25.98,27,13.47,0,111.1,13.13,26.82,179.4
"2009-09-02 01:41:30",1204332,3.401,216.6,0.888,0.041,23.35,110.4182,25.97,27,13.52,0,111.1,13.13,26.81,178.6
"2009-09-02 01:42:00",1204333,3.324,215.6,1.149,0.075,23.38,110.4157,25.96,27.01,13.5,0,111.1,13.13,26.81,177.6
"2009-09-02 01:42:30",1204334,3.127,215.2,0.885,0.099,23.41,110.4151,25.96,27.01,13.42,0,111.1,13.13,26.80,177.2
"2009-09-02 01:43:00",1204335,3.032,215.3,1.08,0.048,23.45,110.4148,25.96,27,13.36,0,111.1,13.14,26.80,177.3
"2009-09-02 01:43:30",1204336,3.023,212.9,1.148,0.061,23.49,110.4146,25.96,26.99,13.3,0,111.1,13.14,26.80,174.9
"2009-09-02 01:44:00",1204337,3.047,214.3,0.782,0.042,23.43,110.4146,25.96,26.99,13.38,0,111.1,13.14,26.80,176.3
"2009-09-02 01:44:30",1204338,3.015,215.7,0.659,0.041,23.4,110.4146,25.96,26.98,13.46,0,111.1,13.14,26.80,177.7
"2009-09-02 01:45:00",1204339,3.026,216.5,1.746,0.039,23.41,110.4146,25.96,26.97,13.48,0,111.1,13.14,26.80,178.5
"2009-09-02 01:45:30",1204340,3.037,215.9,1.189,0.038,23.42,110.4155,25.96,26.97,13.52,0,111.1,13.14,26.80,177.9
"2009-09-02 01:46:00",1204341,3.035,216.6,0.701,0.027,23.39,110.4158,25.96,26.97,13.52,0,111.1,13.14,26.81,178.6
"2009-09-02 01:46:30",1204342,2.903,217.3,0.943,0.067,23.4,110.4174,25.97,26.97,13.54,0,111.1,13.14,26.81,179.3